Latest Weather Observations for Kurnell

IDN60901

Issued at 1:41 pm EST Wednesday 22 April 2015 (issued every 10 minutes, with the page automatically refreshed every 10 minutes)

About weather observations | Map of Sydney area stations | Latest observations for Sydney area | Other Formats
Station Details ID: 066043 Name: KURNELL AWS Lat: -34.00 Lon: 151.21 Height: 4.0 m
Data from the previous 72 hours. | See also: Recent months for locations in New South Wales
Date/Time
EST
Tmp

°C
App
Tmp
°C
Dew
Point
°C
Rel
Hum
%
Delta-T

°C
Wind Press
QNH
hPa
Press
MSL
hPa
Rain
since
9 am
mm
Dir
 
Spd
km/h
Gust
km/h
Spd
kts
Gust
kts
22/01:34pm - - - - - SW 41 59 22 32 - - -
22/01:30pm - - - - - SW 41 56 22 30 - - -
22/01:00pm - - - - - SSW 41 54 22 29 - - -
22/12:30pm - - - - - SW 39 54 21 29 - - -
22/12:00pm - - - - - SSW 46 61 25 33 - - -
22/11:35am - - - - - WSW 28 46 15 25 - - -
22/11:30am - - - - - WSW 20 33 11 18 - - -
22/11:00am - - - - - WSW 22 30 12 16 - - -
22/10:30am - - - - - SSW 13 26 7 14 - - -
22/10:00am - - - - - SW 26 33 14 18 - - -
22/09:38am - - - - - E 26 50 14 27 - - -
22/09:35am - - - - - ESE 17 35 9 19 - - -
22/09:30am - - - - - S 7 11 4 6 - - -
22/09:00am - - - - - SW 28 33 15 18 - - -
22/08:30am - - - - - SSW 28 35 15 19 - - -
22/08:00am - - - - - S 28 37 15 20 - - -
22/07:32am - - - - - S 32 50 17 27 - - -
22/07:30am - - - - - S 28 39 15 21 - - -
22/07:17am - - - - - S 24 35 13 19 - - -
22/07:00am - - - - - SSW 44 63 24 34 - - -
22/06:30am - - - - - S 41 61 22 33 - - -
22/06:26am - - - - - S 35 59 19 32 - - -
22/06:25am - - - - - S 32 56 17 30 - - -
22/06:20am - - - - - SE 28 48 15 26 - - -
22/06:09am - - - - - SSE 39 57 21 31 - - -
22/06:00am - - - - - S 41 54 22 29 - - -
22/05:30am - - - - - S 39 61 21 33 - - -
22/05:00am - - - - - S 46 65 25 35 - - -
22/04:34am - - - - - SSW 46 72 25 39 - - -
22/04:30am - - - - - SSW 46 61 25 33 - - -
22/04:00am - - - - - S 46 59 25 32 - - -
22/03:30am - - - - - S 46 67 25 36 - - -
22/03:14am - - - - - S 39 65 21 35 - - -
22/03:00am - - - - - S 44 59 24 32 - - -
22/02:36am - - - - - S 41 59 22 32 - - -
22/02:30am - - - - - S 39 54 21 29 - - -
22/02:00am - - - - - S 48 70 26 38 - - -
22/01:30am - - - - - S 50 70 27 38 - - -
22/01:00am - - - - - S 43 63 23 34 - - -
22/12:30am - - - - - S 54 74 29 40 - - -
22/12:00am - - - - - S 56 83 30 45 - - -
 
Date/Time
EST
Tmp

°C
App
Tmp
°C
Dew
Point
°C
Rel
Hum
%
Delta-T

°C
Wind Press
QNH
hPa
Press
MSL
hPa
Rain
since
9 am
mm
Dir
 
Spd
km/h
Gust
km/h
Spd
kts
Gust
kts
21/11:30pm - - - - - S 59 87 32 47 - - -
21/11:00pm - - - - - S 57 82 31 44 - - -
21/10:30pm - - - - - SSW 50 74 27 40 - - -
21/10:00pm - - - - - SSW 56 80 30 43 - - -
21/09:30pm - - - - - SSW 57 89 31 48 - - -
21/09:00pm - - - - - SSW 57 76 31 41 - - -
21/08:30pm - - - - - SSW 57 87 31 47 - - -
21/08:00pm - - - - - SSW 59 82 32 44 - - -
21/07:30pm - - - - - SSW 59 83 32 45 - - -
21/07:00pm - - - - - S 59 83 32 45 - - -
21/06:30pm - - - - - S 59 78 32 42 - - -
21/06:00pm - - - - - SSW 56 82 30 44 - - -
21/05:30pm - - - - - SSW 59 80 32 43 - - -
21/05:00pm - - - - - S 54 82 29 44 - - -
21/04:30pm - - - - - S 61 87 33 47 - - -
21/04:00pm - - - - - S 57 80 31 43 - - -
21/03:30pm - - - - - S 57 93 31 50 - - -
21/03:00pm - - - - - S 56 87 30 47 - - -
21/02:30pm - - - - - SSW 56 82 30 44 - - -
21/02:00pm - - - - - S 59 85 32 46 - - -
21/01:30pm - - - - - S 56 80 30 43 - - -
21/01:00pm - - - - - S 57 85 31 46 - - -
21/12:30pm - - - - - S 54 74 29 40 - - -
21/12:00pm - - - - - S 57 89 31 48 - - -
21/11:30am - - - - - S 59 85 32 46 - - -
21/11:00am - - - - - S 56 74 30 40 - - -
21/10:30am - - - - - S 56 83 30 45 - - -
21/10:00am - - - - - S 52 76 28 41 - - -
21/09:30am - - - - - S 56 82 30 44 - - -
21/09:00am - - - - - S 50 89 27 48 - - -
21/08:30am - - - - - S 52 80 28 43 - - -
21/08:00am - - - - - S 57 87 31 47 - - -
21/07:30am - - - - - S 52 74 28 40 - - -
21/07:00am - - - - - S 54 78 29 42 - - -
21/06:30am - - - - - S 56 76 30 41 - - -
21/06:00am - - - - - S 57 83 31 45 - - -
21/05:30am - - - - - S 57 80 31 43 - - -
21/05:00am - - - - - S 54 80 29 43 - - -
21/04:30am - - - - - S 54 80 29 43 - - -
21/04:00am - - - - - S 50 80 27 43 - - -
21/03:30am - - - - - S 57 85 31 46 - - -
21/03:00am - - - - - S 50 78 27 42 - - -
21/02:30am - - - - - S 52 74 28 40 - - -
21/02:03am - - - - - S 46 65 25 35 - - -
21/02:00am - - - - - S 46 63 25 34 - - -
21/01:30am - - - - - S 56 74 30 40 - - -
21/01:00am - - - - - S 52 80 28 43 - - -
21/12:30am - - - - - S 46 72 25 39 - - -
21/12:00am - - - - - S 56 74 30 40 - - -
 
Date/Time
EST
Tmp

°C
App
Tmp
°C
Dew
Point
°C
Rel
Hum
%
Delta-T

°C
Wind Press
QNH
hPa
Press
MSL
hPa
Rain
since
9 am
mm
Dir
 
Spd
km/h
Gust
km/h
Spd
kts
Gust
kts
20/11:30pm - - - - - S 50 74 27 40 - - -
20/11:00pm - - - - - S 50 69 27 37 - - -
20/10:30pm - - - - - S 54 80 29 43 - - -
20/10:00pm - - - - - S 50 70 27 38 - - -
20/09:30pm - - - - - S 48 69 26 37 - - -
20/09:00pm - - - - - S 48 70 26 38 - - -
20/08:30pm - - - - - S 50 69 27 37 - - -
20/08:00pm - - - - - S 48 70 26 38 - - -
20/07:30pm - - - - - S 50 83 27 45 - - -
20/07:00pm - - - - - S 46 69 25 37 - - -
20/06:30pm - - - - - S 52 76 28 41 - - -
20/06:00pm - - - - - S 52 80 28 43 - - -
20/05:30pm - - - - - S 50 72 27 39 - - -
20/05:00pm - - - - - S 48 74 26 40 - - -
20/04:30pm - - - - - S 50 74 27 40 - - -
20/04:00pm - - - - - S 52 80 28 43 - - -
20/03:33pm - - - - - S 48 70 26 38 - - -
20/03:30pm - - - - - S 46 63 25 34 - - -
20/03:00pm - - - - - SSE 44 70 24 38 - - -
20/02:35pm - - - - - SSE 43 67 23 36 - - -
20/02:30pm - - - - - SSE 43 59 23 32 - - -
20/02:00pm - - - - - SSE 43 61 23 33 - - -
20/01:30pm - - - - - SSE 41 61 22 33 - - -
20/01:00pm - - - - - S 43 67 23 36 - - -
20/12:32pm - - - - - S 44 65 24 35 - - -
20/12:30pm - - - - - S 46 61 25 33 - - -
20/12:00pm - - - - - S 48 69 26 37 - - -
20/11:44am - - - - - S 43 61 23 33 - - -
20/11:30am - - - - - S 41 56 22 30 - - -
20/11:10am - - - - - S 39 57 21 31 - - -
20/11:00am - - - - - S 43 59 23 32 - - -
20/10:43am - - - - - S 44 67 24 36 - - -
20/10:41am - - - - - S 44 67 24 36 - - -
20/10:31am - - - - - SSW 35 54 19 29 - - -
20/10:30am - - - - - SSW 35 48 19 26 - - -
20/10:21am - - - - - SSW 39 57 21 31 - - -
20/10:00am - - - - - SSW 46 61 25 33 - - -
20/09:40am - - - - - SSW 39 59 21 32 - - -
20/09:30am - - - - - S 39 56 21 30 - - -
20/09:23am - - - - - SSW 37 56 20 30 - - -
20/09:00am - - - - - S 39 52 21 28 - - -
20/08:30am - - - - - SSW 39 54 21 29 - - -
20/08:00am - - - - - SSW 43 61 23 33 - - -
20/07:55am - - - - - SSW 43 61 23 33 - - -
20/07:30am - - - - - SSW 46 63 25 34 - - -
20/07:09am - - - - - SSW 43 61 23 33 - - -
20/07:00am - - - - - SSW 41 57 22 31 - - -
20/06:34am - - - - - SSW 41 61 22 33 - - -
20/06:30am - - - - - SSW 43 57 23 31 - - -
20/06:12am - - - - - SSW 41 59 22 32 - - -
20/06:00am - - - - - SSW 41 56 22 30 - - -
20/05:30am - - - - - SSW 43 65 23 35 - - -
20/05:05am - - - - - SSW 39 57 21 31 - - -
20/05:00am - - - - - SW 35 52 19 28 - - -
20/04:30am - - - - - SW 44 63 24 34 - - -
20/04:00am - - - - - SSW 39 59 21 32 - - -
20/03:30am - - - - - SW 41 61 22 33 - - -
20/03:18am - - - - - SW 41 59 22 32 - - -
20/03:00am - - - - - SSW 46 59 25 32 - - -
20/02:37am - - - - - SSW 43 61 23 33 - - -
20/02:30am - - - - - SSW 43 54 23 29 - - -
20/02:08am - - - - - SSW 43 61 23 33 - - -
20/02:00am - - - - - SSW 48 63 26 34 - - -
20/01:30am - - - - - SW 39 63 21 34 - - -
20/01:00am - - - - - SW 43 63 23 34 - - -
20/12:32am - - - - - SW 37 56 20 30 - - -
20/12:30am - - - - - SW 39 56 21 30 - - -
20/12:06am - - - - - SSW 39 57 21 31 - - -
20/12:00am - - - - - SSW 37 50 20 27 - - -
 
Date/Time
EST
Tmp

°C
App
Tmp
°C
Dew
Point
°C
Rel
Hum
%
Delta-T

°C
Wind Press
QNH
hPa
Press
MSL
hPa
Rain
since
9 am
mm
Dir
 
Spd
km/h
Gust
km/h
Spd
kts
Gust
kts
19/11:37pm - - - - - SSW 41 59 22 32 - - -
19/11:30pm - - - - - SW 43 59 23 32 - - -
19/11:03pm - - - - - SSW 39 59 21 32 - - -
19/11:00pm - - - - - SSW 37 54 20 29 - - -
19/10:30pm - - - - - SSW 43 63 23 34 - - -
19/10:00pm - - - - - SSW 37 56 20 30 - - -
19/09:35pm - - - - - SSW 39 57 21 31 - - -
19/09:30pm - - - - - SSW 39 56 21 30 - - -
19/09:00pm - - - - - SSW 39 57 21 31 - - -
19/08:43pm - - - - - SSW 39 57 21 31 - - -
19/08:30pm - - - - - SSW 44 59 24 32 - - -
19/08:00pm - - - - - SSW 46 59 25 32 - - -
19/07:44pm - - - - - SSW 44 63 24 34 - - -
19/07:30pm - - - - - SSW 44 59 24 32 - - -
19/07:00pm - - - - - SSW 44 67 24 36 - - -
19/06:41pm - - - - - SSW 41 59 22 32 - - -
19/06:30pm - - - - - SSW 44 59 24 32 - - -
19/06:09pm - - - - - SSW 48 69 26 37 - - -
19/06:00pm - - - - - SSW 48 63 26 34 - - -
19/05:43pm - - - - - S 44 63 24 34 - - -
19/05:30pm - - - - - S 48 59 26 32 - - -
19/05:05pm - - - - - S 39 57 21 31 - - -
19/05:00pm - - - - - S 43 57 23 31 - - -
19/04:48pm - - - - - S 41 59 22 32 - - -
19/04:30pm - - - - - S 39 56 21 30 - - -
19/04:25pm - - - - - S 37 56 20 30 - - -
19/04:00pm - - - - - S 37 54 20 29 - - -
19/03:30pm - - - - - S 35 48 19 26 - - -
19/03:00pm - - - - - SSW 35 57 19 31 - - -
19/02:30pm - - - - - SSW 37 54 20 29 - - -
19/02:00pm - - - - - SSW 39 54 21 29 - - -

Latest Capital City Observations: Canberra | Sydney | Melbourne | Brisbane | Adelaide | Perth | Hobart | Darwin

Other Formats:

Comma delimited format used in spreadsheet applications
http://www.bom.gov.au/fwo/IDN60901/IDN60901.95756.axf

JavaScript Object Notation format (JSON) in row-major order
http://www.bom.gov.au/fwo/IDN60901/IDN60901.95756.json